Retour au catalogue

COSMOS 1858

ActifNavigationLEO
NORAD 18119·PAYLOAD·🇷🇺 Russia

Lancé Jun 16, 1987 depuis Plesetsk Cosmodrome

Loading…

Prochains Passages (prochaines 24 heures)

TLE

FraisSource: Space-Track

Époque: Sep 14, 2026, 14:58 UTC

1 18119U 87051G   26257.62416927  .00000004  00000-0  12435-3 0  9992
2 18119  74.0068 328.3956 0049096 320.4794 208.4192 12.56042275799511

Suivez COSMOS 1858 en temps réel avec AllMySat

Download on the App Store